Погода в Ерале

Россия / Челябинская область     55°01′32″N   57°55′31″E
темп.,
°C
ветер,
м/с
пор.,
м/с
влажн.,
%
обл.,
%
осадки,
мм/ч
давл.,
гПа
погр.,
м
21 июня, пн
пн2123:00+11сз22670 0.0 102011
02:00+9сз11720 0.0 102110
05:00+7сз11720 0.0 102310
08:00+13с23590 0.0 1023409
11:00+16ссв34474 0.0 1023890
14:00+19ссв344230 0.0 1023996
17:00+21св2246100 0.0 1022558
20:00+19зсз22657 0.0 102136
22 июня, вт
вт2223:00+13зюз118337 0.0 102211
02:00+12юз118853 0.0 102110
05:00+12ююз129020 0.0 102111
08:00+17юз23765 0.0 1021239
11:00+23з466128 0.0 1020755
14:00+26зсз685697 0.0 10191667
17:00+23зсз476861 0.0 1018157
20:00+24зсз5106896 0.0 1018308
23 июня, ср
ср2323:00+19з41189100 1.4 1018276
02:00+16зюз22945 1.9 101813
05:00+15зюз11940 2.4 101811
08:00+18ссз129099 1.8 1018261
11:00+22ссв3474100 1.9 1018825
14:00+22ссв5571100 0.2 1018802
17:00+16всв2391100 0.9 1019222
20:00+17св248813 0.1 1018379
24 июня, чт
чт2423:00+13св11950 0.1 101810
02:00+12всв11961 0.0 101810
05:00+11вюв11965 0.0 101810
08:00+16вюв12815 0.0 1018221
11:00+20в225259 0.0 1018733
14:00+23с224598 0.0 1017908
17:00+24св23484 0.0 1017849
20:00+22ююв22655 0.0 101613
25 июня, пт
пт2523:00+16юз11811 0.0 101711
02:00+15ююз2287100 0.0 101611
05:00+15юз228764 0.0 101611
08:00+20зюз247358 0.0 1015261
11:00+24з57585 0.0 1014973
14:00+26з675958 0.0 10121541
17:00+24зсз587899 3.8 1012637
20:00+23з488346 3.8 1010193